Location: Newark
(43.9494°N, 6.8108°E)
Time: 02:09:15
(UTC+00:00)

A-11 Canister half - Pass Details

Date: 28 October 2019
Orbit: 1514 x 1686 km, 47.2° (Epoch: 18 November)

Event Time Altitude Azimuth Distance (km) Brightness Sun altitude
Rises 22:16:19 0° 215° (SW) 4,928 - -56.7°
Reaches altitude 10° 22:19:38 10° 210° (SSW) 3,939 - -57.0°
Maximum altitude 22:29:10 48° 140° (SE) 2,075 - -57.7°
Drops below altitude 10° 22:38:30 10° 70° (ENE) 3,867 - -58.2°
Sets 22:41:42 0° 65° (ENE) 4,833 - -58.4°
